Погода в Арыси

Казахстан     42°25′21″N   68°47′50″E
темп.,
°C
ветер,
м/с
пор.,
м/с
влажн.,
%
обл.,
%
осадки,
мм/ч
давл.,
гПа
погр.,
м
25 февраля, чт
чт2500:00−7зюз9133381 0.0 10311327
03:00−8зюз8113124 0.0 10341373
06:00−9зюз7113312 0.0 10361282
09:00−9юз710340 0.0 10391164
12:00−6юз810310 0.0 10391417
15:00−4зюз811270 0.0 10391648
18:00−5зюз79280 0.0 10391611
21:00−7зюз36380 0.0 1041273
26 февраля, пт
пт2600:00−7зюз23380 0.0 1041114
03:00−7юз12400 0.0 104125
06:00−8сз01390 0.0 104021
09:00−8в33470 0.0 1039125
12:00−5всв113150 0.0 1038765
15:00−3с212644 0.0 10351049
18:00−3ссв322967 0.0 1034814
21:00−5всв4651100 0.0 1034335
27 февраля, сб
сб2700:00−5всв3442100 0.0 1032231
03:00−5св2341100 0.0 1031168
06:00−4всв2342100 0.0 1030160
09:00−4всв2241100 0.0 1031140
12:000в112799 0.0 1031484
15:00+3юз243083 0.0 10301308
18:00+3з233546 0.0 1030675
21:00−1всв12500 0.0 103130
28 февраля, вс
вс2800:00−1ююв23530 0.0 103026
03:00−2вюв335520 0.0 102944
06:00−2вюв445616 0.0 102887
09:000вюв34470 0.0 1027104
12:00+6в33310 0.0 1025505
15:00+8всв32290 0.0 1022903
18:00+8в33360 0.0 1021528
21:00+3в34480 0.0 102137
1 марта, пн
пн100:00+2в34550 0.0 102152
03:00+1вюв33510 0.0 102031
06:00+1юв234712 0.0 102022
09:00+3юв22450 0.0 102123
12:00+9вюв11310 0.0 1020328
15:00+12юз13270 0.0 1019941
18:00+13с11350 0.0 101997
21:00+7в45540 0.0 102070